Location: Newark
(37.8333°N, 119.5000°W)
Time: 09:14:14
(UTC+00:00)

Tiros 1 despin weight - Pass Details

Date: 26 August 2019
Orbit: 594 x 642 km, 48.2° (Epoch: 17 September)

Event Time Altitude Azimuth Distance (km) Brightness Sun altitude
Rises 12:53:10 0° 295° (WNW) 2,883 ? -6.5°
Reaches altitude 10° 12:55:40 10° 285° (WNW) 1,983 ? -6.0°
Maximum altitude 12:59:38 30° 224° (SW) 1,120 ? -5.2°
Drops below altitude 10° 13:03:39 10° 163° (SSE) 1,999 ? -4.5°
Sets 13:06:12 0° 153° (SSE) 2,911 ? -4.0°
